Dublin, Ireland

1:04 AM IST on July 23, 2017 (GMT +0100)
Dublin International

Weather History for EIDW - March, 2013

Change the Weather History Date:

Sunday, March 31, 2013

  Actual Average Record
Temperature  
Mean Temperature 38 °F -  
Max Temperature 41 °F 53 °F 59 °F (2003)
Min Temperature 36 °F 40 °F 32 °F (2003)
Degree Days  
Heating Degree Days 26    
Moisture  
Dew Point 27 °F    
Average Humidity 63    
Maximum Humidity 75    
Minimum Humidity 44    
Precipitation  
Precipitation 0.00 in 0.07 in - ()
Sea Level Pressure  
Sea Level Pressure 29.88 in    
Wind  
Wind Speed 16 mph ()    
Max Wind Speed 24 mph    
Max Gust Speed -    
Visibility 6.5 miles    
Events Rain    
Averages and records for this station are not official NWS values.
T = Trace of Precipitation, MM = Missing Value Source: Averaged Metar Reports

Daily Weather History Graph

Daily Weather History Graph

Search for Another Location

Airport or City:

Trip Planner

Search our weather history database for the weather conditions in past years. The results will help you decide how hot, cold, wet, or windy it might be!

Date:

Astronomy

Mar. 31, 2013 Rise Set
Actual Time 7:00 AM IST 7:58 PM IST
Civil Twilight 6:25 AM IST 8:34 PM IST
Nautical Twilight 5:42 AM IST 9:17 PM IST
Astronomical Twilight 4:56 AM IST 10:03 PM IST
Moon 12:23 AM GMT (3/31) 8:59 AM IST (3/31)
Length of Visible Light 14h 09m
Length of Day
12h 58m
Waning Gibbous, 80% of the Moon is Illuminated
Mar 31
Waning Gibbous
Apr 3
Last Quarter
Apr 10
New
Apr 18
First Quarter
Apr 25
Full

Hourly Weather History & Observations

Time (IST) Temp. Windchill Dew Point Humidity Pressure Visibility Wind Dir Wind Speed Gust Speed Precip Events Conditions
12:00 AM 38 °F - 24 °F 44% 29.95 in 19 mi SSE 11.2 mph - -   Mostly Cloudy
12:00 AM 39.2 °F 32.0 °F 24.8 °F 56% 29.92 in 6.2 mi SE 11.5 mph - N/A   Mostly Cloudy
12:30 AM 37.4 °F 29.3 °F 23.0 °F 56% 29.92 in 6.2 mi SE 12.7 mph - N/A   Mostly Cloudy
2:00 AM 39.2 °F 30.2 °F 23.0 °F 52% 29.92 in 6.2 mi SE 17.3 mph - N/A   Mostly Cloudy
2:30 AM 39.2 °F 30.8 °F 24.8 °F 56% 29.92 in 6.2 mi SE 15.0 mph - N/A   Mostly Cloudy
3:00 AM 39.2 °F 32.0 °F 24.8 °F 56% 29.92 in 6.2 mi SE 11.5 mph - N/A   Mostly Cloudy
3:30 AM 39.2 °F 30.8 °F 24.8 °F 56% 29.92 in 6.2 mi SE 15.0 mph - N/A   Mostly Cloudy
4:00 AM 39.2 °F 30.8 °F 26.6 °F 61% 29.89 in 6.2 mi SE 15.0 mph - N/A   Mostly Cloudy
4:30 AM 39.2 °F 30.5 °F 24.8 °F 56% 29.89 in 6.2 mi SE 16.1 mph - N/A   Mostly Cloudy
5:00 AM 39.2 °F 30.2 °F 24.8 °F 56% 29.89 in 6.2 mi SE 17.3 mph - N/A   Mostly Cloudy
5:30 AM 39.2 °F 30.8 °F 26.6 °F 61% 29.89 in 6.2 mi SE 15.0 mph - N/A   Mostly Cloudy
6:00 AM 39.2 °F 30.2 °F 26.6 °F 61% 29.89 in 6.2 mi SE 17.3 mph - N/A   Mostly Cloudy
6:30 AM 37.4 °F 27.8 °F 28.4 °F 70% 29.89 in 6.2 mi SE 17.3 mph - N/A   Mostly Cloudy
7:00 AM 37 °F - 30 °F 67% 29.90 in 31 mi ESE 20.1 mph - - Rain Light Rain
7:00 AM 37.4 °F 26.6 °F 30.2 °F 75% 29.89 in 6.2 mi ESE 21.9 mph - N/A   Mostly Cloudy
7:30 AM 37.4 °F 26.6 °F 30.2 °F 75% 29.89 in 6.2 mi SE 21.9 mph - N/A   Mostly Cloudy
8:00 AM 37.4 °F 26.9 °F 28.4 °F 70% 29.89 in 6.2 mi SE 20.7 mph - N/A   Mostly Cloudy
8:30 AM 37.4 °F 27.2 °F 28.4 °F 70% 29.89 in 6.2 mi SE 19.6 mph - N/A   Mostly Cloudy
9:00 AM 37.4 °F 26.4 °F 28.4 °F 70% 29.89 in 6.2 mi ESE 23.0 mph - N/A   Mostly Cloudy
9:30 AM 37.4 °F 26.9 °F 28.4 °F 70% 29.89 in 6.2 mi ESE 20.7 mph - N/A   Mostly Cloudy
10:00 AM 37.4 °F 26.6 °F 26.6 °F 65% 29.89 in 6.2 mi SE 21.9 mph - N/A   Mostly Cloudy
10:30 AM 39.2 °F 29.6 °F 26.6 °F 61% 29.89 in 6.2 mi SE 19.6 mph - N/A   Scattered Clouds
11:00 AM 39.2 °F 28.5 °F 28.4 °F 65% 29.89 in 6.2 mi SE 24.2 mph - N/A   Scattered Clouds
11:30 AM 39.2 °F 28.5 °F 28.4 °F 65% 29.89 in 6.2 mi SE 24.2 mph - N/A   Scattered Clouds
12:00 PM 39.2 °F 29.3 °F 28.4 °F 65% 29.89 in 6.2 mi SE 20.7 mph - N/A   Mostly Cloudy
12:30 PM 41.0 °F 31.1 °F 28.4 °F 61% 29.89 in 6.2 mi SE 23.0 mph - N/A   Scattered Clouds
1:00 PM 40 °F - 29 °F 54% 29.90 in 25 mi SE 22.4 mph - -   Scattered Clouds
1:00 PM 41.0 °F 31.1 °F 28.4 °F 61% 29.89 in 6.2 mi SE 23.0 mph - N/A   Mostly Cloudy
1:30 PM 39.2 °F 29.0 °F 28.4 °F 65% 29.89 in 6.2 mi SE 21.9 mph - N/A   Mostly Cloudy
2:00 PM 41.0 °F 31.4 °F 28.4 °F 61% 29.89 in 6.2 mi ESE 21.9 mph - N/A   Mostly Cloudy
2:30 PM 39.2 °F 29.0 °F 26.6 °F 61% 29.89 in 6.2 mi SE 21.9 mph - N/A   Mostly Cloudy
3:00 PM 39.2 °F 29.3 °F 28.4 °F 65% 29.89 in 6.2 mi ESE 20.7 mph - N/A   Mostly Cloudy
3:30 PM 39.2 °F 29.3 °F 26.6 °F 61% 29.86 in 6.2 mi ESE 20.7 mph - N/A   Mostly Cloudy
4:00 PM 39.2 °F 29.3 °F 26.6 °F 61% 29.86 in 6.2 mi ESE 20.7 mph - N/A   Mostly Cloudy
4:30 PM 39.2 °F 30.2 °F 26.6 °F 61% 29.86 in 6.2 mi SE 17.3 mph - N/A   Mostly Cloudy
5:00 PM 39.2 °F 29.6 °F 26.6 °F 61% 29.86 in 6.2 mi SE 19.6 mph - N/A   Scattered Clouds
5:30 PM 39.2 °F 30.5 °F 26.6 °F 61% 29.86 in 6.2 mi SE 16.1 mph - N/A   Mostly Cloudy
6:00 PM 39.2 °F 30.5 °F 26.6 °F 61% 29.86 in 6.2 mi SE 16.1 mph - N/A   Mostly Cloudy
6:30 PM 39.2 °F 30.2 °F 26.6 °F 61% 29.86 in 6.2 mi ESE 17.3 mph - N/A   Mostly Cloudy
7:00 PM 38 °F - 27 °F 53% 29.87 in 28 mi ESE 17.9 mph - -   Scattered Clouds
7:00 PM 39.2 °F 30.5 °F 26.6 °F 61% 29.83 in 6.2 mi ESE 16.1 mph - N/A   Mostly Cloudy
7:30 PM 37.4 °F 28.9 °F 26.6 °F 65% 29.83 in 6.2 mi ESE 13.8 mph - N/A   Mostly Cloudy
8:00 PM 37.4 °F 28.5 °F 26.6 °F 65% 29.83 in 6.2 mi ESE 15.0 mph - N/A   Mostly Cloudy
8:30 PM 37.4 °F 29.3 °F 26.6 °F 65% 29.83 in 6.2 mi ESE 12.7 mph - N/A   Mostly Cloudy
9:00 PM 37.4 °F 29.3 °F 26.6 °F 65% 29.83 in 6.2 mi ESE 12.7 mph - N/A   Mostly Cloudy
9:30 PM 37.4 °F 29.3 °F 26.6 °F 65% 29.83 in 6.2 mi ESE 12.7 mph - N/A   Scattered Clouds
10:00 PM 39.2 °F 30.5 °F 26.6 °F 61% 29.83 in 6.2 mi ESE 16.1 mph - N/A   Partly Cloudy
10:30 PM 37.4 °F 27.8 °F 28.4 °F 70% 29.83 in 6.2 mi ESE 17.3 mph - N/A   Partly Cloudy
11:00 PM 37.4 °F 27.8 °F 28.4 °F 70% 29.83 in 6.2 mi ESE 17.3 mph - N/A   Partly Cloudy
11:30 PM 37.4 °F 27.2 °F 28.4 °F 70% 29.83 in 6.2 mi ESE 19.6 mph - N/A   Partly Cloudy
12:00 AM 37.4 °F 27.5 °F 28.4 °F 70% 29.83 in 6.2 mi ESE 18.4 mph - N/A   Partly Cloudy
12:30 AM 37.4 °F 27.8 °F 28.4 °F 70% 29.83 in 6.2 mi ESE 17.3 mph - N/A   Partly Cloudy